Change the Weather History Date:

Sunday, March 23, 2014

  Actual Average Record
Temperature  
Mean Temperature 38 °F -  
Max Temperature 45 °F 45 °F 68 °F (2012)
Min Temperature 30 °F 30 °F 9 °F (1934)
Degree Days  
Heating Degree Days 26    
Moisture  
Dew Point 20 °F    
Average Humidity 50    
Maximum Humidity 67    
Minimum Humidity 32    
Precipitation  
Precipitation 0.00 in - - ()
Sea Level Pressure  
Sea Level Pressure 29.94 in    
Wind  
Wind Speed 8 mph (NW)    
Max Wind Speed 18 mph    
Max Gust Speed 30 mph    
Visibility 10 miles    
Events      
Averages and records for this station are not official NWS values.
T = Trace of Precipitation, MM = Missing Value Source: NWS Daily Summary

Daily Weather History Graph

Daily Weather History Graph

Search for Another Location

Airport or City:

Trip Planner

Search our weather history database for the weather conditions in past years. The results will help you decide how hot, cold, wet, or windy it might be!

Date:

Astronomy

Mar. 23, 2014 Rise Set
Actual Time 6:39 AM EDT 6:56 PM EDT
Civil Twilight 6:11 AM EDT 7:24 PM EDT
Nautical Twilight 5:39 AM EDT 7:57 PM EDT
Astronomical Twilight 5:05 AM EDT 8:30 PM EDT
Moon 1:14 AM EDT (3/23) 11:13 AM EDT (3/23)
Length of Visible Light 13h 12m
Length of Day
12h 17m
Waning Gibbous, 55% of the Moon is Illuminated
Mar 23
Waning Gibbous
Mar 23
Last Quarter
Mar 30
New
Apr 7
First Quarter
Apr 15
Full

Hourly Weather History & Observations

Time (EDT) Temp. Windchill Dew Point Humidity Pressure Visibility Wind Dir Wind Speed Gust Speed Precip Events Conditions
12:56 AM 39.0 °F 34.8 °F 27.0 °F 62% 29.94 in 10.0 mi NW 5.8 mph - N/A   Clear
1:56 AM 37.0 °F 32.4 °F 24.1 °F 59% 29.95 in 10.0 mi NW 5.8 mph - N/A   Clear
2:56 AM 35.1 °F 31.0 °F 23.0 °F 61% 29.94 in 10.0 mi NW 4.6 mph - N/A   Clear
3:56 AM 35.1 °F 31.0 °F 23.0 °F 61% 29.94 in 10.0 mi NW 4.6 mph - N/A   Clear
4:56 AM 35.1 °F 31.0 °F 23.0 °F 61% 29.94 in 10.0 mi NW 4.6 mph - N/A   Clear
5:56 AM 34.0 °F 29.8 °F 24.1 °F 67% 29.96 in 10.0 mi WSW 4.6 mph - N/A   Clear
6:56 AM 34.0 °F 29.8 °F 24.1 °F 67% 29.97 in 10.0 mi West 4.6 mph - N/A   Clear
7:56 AM 37.0 °F 31.6 °F 26.1 °F 65% 29.99 in 10.0 mi West 6.9 mph - N/A   Clear
8:56 AM 39.0 °F 32.3 °F 25.0 °F 57% 29.99 in 10.0 mi West 10.4 mph - N/A   Mostly Cloudy
9:56 AM 42.1 °F 36.1 °F 19.9 °F 41% 29.97 in 10.0 mi West 10.4 mph - N/A   Partly Cloudy
10:56 AM 42.1 °F 36.6 °F 18.0 °F 38% 29.97 in 10.0 mi WNW 9.2 mph 18.4 mph N/A   Mostly Cloudy
11:56 AM 43.0 °F 36.8 °F 19.9 °F 40% 29.94 in 10.0 mi WSW 11.5 mph - N/A   Clear
12:56 PM 45.0 °F 39.3 °F 21.9 °F 40% 29.92 in 10.0 mi West 11.5 mph - N/A   Clear
1:56 PM 44.1 °F 37.4 °F 18.0 °F 35% 29.90 in 10.0 mi West 13.8 mph - N/A   Clear
2:56 PM 44.1 °F 38.6 °F 16.0 °F 32% 29.88 in 10.0 mi WNW 10.4 mph - N/A   Partly Cloudy
3:56 PM 43.0 °F 38.2 °F 19.9 °F 40% 29.87 in 10.0 mi North 8.1 mph - N/A   Partly Cloudy
4:56 PM 41.0 °F 35.2 °F 19.9 °F 43% 29.87 in 10.0 mi North 9.2 mph - N/A   Overcast
5:56 PM 37.9 °F 31.5 °F 25.0 °F 60% 29.90 in 10.0 mi NNE 9.2 mph - N/A   Overcast
6:56 PM 37.0 °F 29.3 °F 21.9 °F 54% 29.92 in 10.0 mi NNE 11.5 mph 19.6 mph N/A   Overcast
7:56 PM 37.0 °F 29.3 °F 15.1 °F 41% 29.93 in 10.0 mi North 11.5 mph - N/A   Overcast
8:56 PM 36.0 °F 26.7 °F 12.0 °F 37% 29.94 in 10.0 mi North 15.0 mph 21.9 mph N/A   Overcast
9:56 PM 34.0 °F 24.6 °F 15.1 °F 46% 29.96 in 10.0 mi North 13.8 mph 23.0 mph N/A   Overcast
10:56 PM 32.0 °F 20.5 °F 12.0 °F 44% 29.98 in 10.0 mi North 18.4 mph 27.6 mph N/A   Partly Cloudy
11:56 PM 30.9 °F 19.1 °F 10.9 °F 43% 29.99 in 10.0 mi North 18.4 mph 29.9 mph N/A   Overcast